User: anonymous   Login
Location: ??????
(33.3472°N, 35.4764°E)
Time: 04:53:21
(UTC+00:00)
Language:

RUBIN 8/PSLV - Orbit

View from above orbital plane
View from above orbital plane
View from above satellite
View from above satellite

Ground track
Ground track

The orbit data is extracted from the following two-line orbital elements,

1 32792U 08021K   19293.54612947  .00000071  00000-0  16323-4 0  9993
2 32792  97.8472 255.9539 0026559 305.4428  54.4304 14.79711911619055
Epoch (UTC): 20 October 2019 13:06:25
Eccentricity: 0.0026559
inclination: 97.8472°
perigee height: 611 km
apogee height: 649 km
right ascension of ascending node: 255.9539°
argument of perigee: 305.4428°
revolutions per day: 14.79711911
mean anomaly at epoch: 54.4304°
orbit number at epoch: 61905

The dashed part of the orbit path shows where the satellite is in the earth's shadow,  

DLR